Temperature
22 21 20 20 19 19 20 20 20 19 19 19 18 18 18 18 18 18 18 18 18 17 18 17 17 17 17 17 17 17 17 17 17 17 17 18 18 18 17 17 17 17 17
22 21 20 20 19 19 20 20 20 19 19 19 19 18 18 18 18 18 18 18 18 17 17 17 17 17 17 17 17 17 17 17 17 17 18 18 18 17 18 17 17 17 17
23 21 20 20 19 19 19 19 19 19 19 18 18 18 18 18 18 18 18 18 18 17 17 17 17 17 17 17 17 17 17 17 17 17 18 19 19 19 18 18 17 17 17
23 22 21 20 20 19 19 19 19 19 19 18 18 18 18 18 18 18 18 18 18 17 17 17 17 17 17 17 17 17 17 17 17 17 17 18 18 18 19 18 18 17 17
23 22 21 20 20 19 19 19 19 19 18 18 18 18 18 18 18 18 18 17 17 17 17 17 17 17 17 17 17 17 17 17 17 18 17 17 17 18 18 19 19 18 18
23 22 21 20 19 19 19 18 18 19 18 18 18 18 18 18 18 18 17 17 17 17 17 17 17 17 17 17 17 17 17 17 17 17 17 17 18 18 18 19 18 19 19
23 22 21 20 19 19 18 18 18 18 18 18 18 18 18 18 18 17 17 17 17 17 17 17 17 17 17 17 17 17 17 17 17 17 17 17 18 18 18 18 19 19 19
23 22 21 20 19 19 18 18 18 18 18 18 18 18 17 17 17 17 17 17 17 17 17 17 17 17 17 17 17 17 17 17 17 17 17 17 17 18 18 18 18 19 19
23 22 21 20 19 19 18 18 18 18 18 18 17 17 17 17 17 17 17 17 17 17 17 17 17 17 17 17 17 17 17 17 17 17 17 17 17 17 17 17 18 18 19
23 22 21 20 19 19 18 18 18 18 18 17 17 17 17 17 17 17 17 17 17 17 17 17 17 17 17 17 17 17 17 17 17 17 16 16 17 17 17 17 17 17 18
23 22 21 20 19 19 18 18 18 18 17 17 17 17 17 17 17 17 17 17 17 16 16 16 16 16 16 16 17 17 16 16 16 16 16 16 16 17 17 17 17 17 17
22 21 21 20 19 19 18 18 18 17 17 17 17 17 17 17 17 17 17 17 17 16 16 16 16 16 16 16 16 16 16 16 16 16 16 16 16 16 16 16 16 17 17
22 21 20 20 19 19 18 18 18 17 17 17 17 17 17 17 17 17 17 16 16 16 16 16 16 16 16 16 16 16 16 16 16 16 16 16 16 16 16 16 16 16 16
21 21 20 19 19 18 18 18 18 17 17 17 17 17 17 17 17 17 17 16 16 16 16 16 16 16 16 16 16 16 16 16 16 16 15 15 15 15 15 15 15 15 16
21 20 20 19 18 18 18 18 18 17 17 17 17 17 17 17 17 16 16 16 16 16 16 16 16 16 16 16 16 16 15 15 15 15 15 15 15 15 15 15 15 15 15
20 19 19 18 18 18 18 18 17 17 17 17 17 17 16 16 16 16 16 16 16 16 16 16 16 15 15 16 16 16 15 15 15 15 15 15 15 15 15 15 15 15 15
19 18 18 18 18 18 17 17 17 17 17 17 16 16 16 16 16 16 16 16 16 16 15 15 15 15 15 15 15 15 15 15 15 15 15 15 15 15 14 14 14 14 14
18 17 17 17 17 17 17 17 17 17 17 16 16 16 16 16 16 15 15 15 15 15 15 15 15 15 15 15 15 15 15 14 14 14 14 14 14 14 14 14 14 14 14
17 17 17 17 17 17 17 17 17 17 16 16 16 16 15 15 15 15 15 15 15 15 14 14 14 14 14 14 14 14 14 14 14 14 14 14 14 13 13 13 13 13 13
16 16 16 16 16 16 16 16 16 16 16 15 15 15 15 15 15 15 15 15 15 14 14 14 14 14 14 14 14 14 14 14 13 13 13 13 13 13 13 12 12 12 12
15 16 16 16 16 16 16 16 16 15 15 15 15 15 15 15 15 15 14 14 14 14 14 13 13 13 13 13 13 14 13 13 13 13 12 12 12 12 12 12 12 12 12
15 15 15 15 15 15 15 15 15 15 15 15 15 15 14 14 14 14 14 14 14 13 13 13 13 13 13 13 13 13 13 12 12 12 12 12 12 11 11 11 11 11 11
14 14 14 14 14 14 14 15 14 14 14 14 14 14 14 14 13 13 13 13 13 13 13 12 12 12 12 12 12 12 12 12 12 11 11 11 11 10 10 10 10 10 10
14 14 14 14 13 14 14 14 14 14 14 14 14 13 13 13 13 13 13 13 12 12 12 12 12 11 11 11 11 11 11 11 11 10 10 10 10 10 9 9 9 9 9
13 13 13 13 13 13 13 13 13 13 13 13 13 12 12 12 12 12 12 12 12 11 11 11 11 11 11 10 10 10 10 10 10 9 9 9 9 9 9 9 8 8 8
12 12 12 12 12 12 12 13 13 13 13 12 12 12 12 12 12 11 11 11 11 10 11 11 10 10 10 10 10 10 9 9 9 9 9 9 8 8 8 8 8 7 7
Wind_Speed
11 12 13 13 14 14 14 14 15 14 12 11 11 11 10 10 9 10 11 12 11 11 10 8 8 8 7 7 7 6 7 6 4 4 4 4 5 5 4 5 5 6 7
10 11 12 13 14 14 14 15 15 14 14 12 10 9 9 9 10 9 10 12 12 12 11 10 9 9 7 8 8 7 6 5 5 4 4 4 4 5 6 5 6 7 7
10 12 13 13 14 14 14 13 14 13 14 12 9 8 7 7 8 9 9 11 13 13 12 11 10 9 9 8 9 8 8 6 6 5 4 4 3 3 4 6 6 6 6
9 11 12 13 13 13 13 13 13 13 13 13 12 12 11 10 10 9 9 10 12 13 13 12 11 10 9 8 9 9 7 7 6 5 5 5 3 3 2 5 6 7 7
8 9 10 11 11 12 12 12 12 13 13 13 14 13 12 10 8 8 9 10 10 12 13 13 12 11 10 9 9 8 9 8 7 6 6 6 5 6 5 4 4 5 6
6 7 8 8 9 10 10 11 11 12 12 13 13 13 13 11 10 10 10 9 9 10 13 13 12 11 10 10 10 9 10 8 7 7 6 6 6 6 6 5 5 5 5
6 7 7 8 8 9 9 10 11 11 11 12 12 13 13 13 12 12 11 10 9 10 12 12 11 11 10 10 10 10 10 10 9 9 8 7 7 6 6 6 5 4 4
5 6 7 7 8 8 8 8 10 9 10 11 11 11 11 10 10 11 10 11 9 10 11 12 11 11 11 11 10 10 10 9 9 10 9 7 8 7 6 6 6 6 6
6 6 7 7 7 8 8 8 8 8 9 10 9 10 11 10 10 9 10 9 9 9 11 11 11 11 11 10 10 9 9 9 9 9 9 9 8 7 7 6 7 7 7
6 6 7 7 6 7 7 7 8 8 8 8 8 8 9 10 9 9 9 9 9 9 9 10 10 10 10 10 9 8 9 9 8 7 7 8 8 7 7 7 7 7 7
6 6 6 7 7 6 7 7 7 7 7 8 8 7 8 8 9 8 9 9 9 9 9 9 10 10 9 9 9 9 8 9 9 8 8 9 8 7 7 7 8 8 8
6 6 6 7 6 7 6 7 7 7 7 7 7 7 7 7 7 8 8 8 8 9 10 9 9 9 9 9 9 9 9 9 10 9 8 9 7 8 8 7 8 7 7
6 6 6 6 6 6 6 6 6 6 6 7 7 6 6 7 7 7 7 7 8 8 9 9 9 9 8 8 8 9 9 9 8 8 8 8 7 7 7 7 7 6 7
5 5 5 5 5 5 5 5 5 5 6 6 6 6 6 6 6 6 6 6 7 8 8 8 8 8 7 7 8 8 8 7 7 6 6 6 7 7 7 6 7 7 7
4 4 4 4 4 5 5 5 5 5 5 5 6 5 5 5 5 5 5 6 6 7 7 7 7 7 6 6 6 6 6 6 6 5 5 6 4 2 3 5 5 5 6
3 3 3 3 3 4 5 5 5 5 5 5 5 5 4 4 4 4 5 5 5 5 5 6 5 5 4 3 3 4 5 5 5 5 5 5 4 4 4 3 3 4 5
3 3 3 2 2 3 4 5 5 6 6 5 5 5 5 4 4 5 5 5 5 5 5 5 5 4 4 5 4 2 3 4 4 4 4 4 3 4 5 5 6 4 4
3 2 2 2 2 3 4 5 6 6 6 5 5 6 6 5 5 5 5 5 5 5 5 5 5 5 5 6 5 3 4 3 2 2 2 2 1 1 2 3 3 3 2
3 2 2 2 2 3 4 5 6 6 6 5 5 5 6 6 6 6 6 6 6 6 5 5 5 5 5 5 3 1 3 3 2 2 3 1 1 3 3 2 2 2 1
4 3 3 4 4 3 3 5 6 6 6 6 5 5 5 6 6 7 7 6 6 6 6 6 6 5 5 5 3 0 2 3 3 3 4 5 4 4 3 0 0 0 1
5 5 4 5 4 3 4 5 5 5 6 6 6 6 6 6 7 7 7 7 7 7 7 7 6 6 6 6 6 4 2 2 3 3 3 4 6 6 5 3 2 2 3
6 6 5 6 5 5 5 6 6 5 6 7 7 7 7 7 7 8 7 7 7 8 7 6 6 6 7 8 8 8 6 4 4 4 5 6 8 8 7 5 4 3 4
6 6 7 7 7 6 6 8 6 7 8 9 9 9 9 9 8 8 8 7 6 6 6 6 6 6 7 8 11 10 10 9 6 7 10 8 6 5 6 7 4 3 3
7 6 7 8 8 7 8 7 7 8 10 11 10 10 10 11 10 8 7 6 6 6 6 6 7 7 7 7 6 6 7 8 8 7 8 7 6 5 5 4 4 5 5
7 7 8 8 9 8 8 8 8 9 11 11 11 11 11 12 12 12 11 10 10 8 7 7 7 7 7 7 9 7 6 5 5 3 3 4 4 5 5 5 5 5 5
8 9 9 10 10 10 9 9 8 9 10 10 10 9 9 10 11 12 14 20 17 19 19 16 11 10 10 9 11 12 10 8 5 3 6 5 5 5 5 5 5 5 5
Wind_Direction
192 187 189 190 188 189 190 193 194 192 190 193 196 199 201 201 203 205 200 198 203 205 211 216 200 210 206 208 206 205 201 215 210 222 224 219 221 224 218 222 221 213 213
183 182 187 191 192 191 192 194 194 194 197 197 197 199 198 202 204 206 201 201 202 206 209 216 210 208 207 209 211 212 220 210 199 219 226 226 208 215 220 214 217 221 211
193 187 188 192 194 194 196 197 197 197 201 198 193 193 194 202 205 207 208 208 208 210 216 211 215 213 214 208 211 207 213 215 208 219 235 242 231 199 196 215 218 215 217
196 192 192 193 196 197 195 198 196 197 198 195 195 196 199 203 209 208 207 208 212 215 214 214 216 218 218 211 212 209 215 219 218 209 232 262 310 268 221 204 199 206 218
195 193 193 194 197 195 194 195 195 198 197 197 197 199 206 211 211 211 210 212 212 216 217 216 215 215 220 216 219 210 218 217 225 220 214 224 230 244 259 244 219 208 214
186 184 186 186 189 191 191 191 193 197 198 199 203 206 210 210 209 209 211 212 212 215 216 216 213 215 219 214 214 215 216 225 229 233 226 222 227 231 237 246 239 232 225
175 175 175 177 180 184 185 190 194 195 196 200 206 213 216 213 213 215 214 214 214 213 213 214 213 214 214 213 212 212 220 218 220 226 230 233 240 247 246 256 257 250 234
164 167 168 172 176 178 180 186 189 192 196 203 207 211 215 214 216 216 214 215 217 216 209 211 212 212 210 211 209 214 213 213 217 224 232 241 241 243 241 248 257 254 245
159 161 160 165 169 173 177 183 186 191 196 202 205 207 209 214 216 213 212 215 215 213 208 207 210 211 210 211 209 216 215 210 214 219 219 233 239 236 242 246 251 257 261
156 154 155 154 154 162 169 179 187 195 199 202 207 206 208 210 211 212 209 209 213 214 208 206 205 208 207 206 209 212 212 213 215 222 229 231 237 232 235 240 245 252 262
152 151 152 150 152 159 164 172 179 190 198 201 205 205 203 203 202 205 206 206 208 206 205 205 204 204 205 206 207 214 209 212 215 218 220 226 239 236 234 234 239 244 250
148 151 149 148 155 163 169 174 182 191 197 196 198 200 197 192 196 200 201 202 202 200 199 200 201 204 205 204 206 214 211 212 213 217 221 226 225 230 245 246 245 246 251
143 150 153 157 161 167 172 173 179 184 189 184 186 186 187 187 193 197 197 198 195 192 192 191 196 201 204 206 207 212 214 216 217 216 219 225 226 229 234 241 247 246 243
140 154 160 166 169 175 175 175 177 176 177 174 175 175 181 184 188 189 189 190 188 184 185 187 192 195 201 206 209 209 211 214 217 217 219 223 226 232 235 236 244 250 253
125 139 153 158 170 177 177 174 172 169 168 167 168 171 173 172 173 176 179 178 178 177 177 181 186 189 191 203 205 205 206 211 214 212 215 220 218 248 248 248 244 247 252
114 117 122 141 169 180 181 176 170 164 162 162 159 158 157 158 159 162 164 159 158 159 163 170 172 171 180 141 159 203 205 207 209 210 213 212 201 207 212 257 286 281 259
109 115 123 134 154 181 178 174 169 159 157 158 151 145 146 144 141 135 133 137 140 140 142 145 146 143 115 106 122 170 204 208 213 217 221 231 209 198 216 205 207 225 236
85 86 97 112 132 153 160 161 159 154 152 151 148 143 138 135 130 123 123 124 125 125 129 130 131 123 101 103 121 152 183 192 205 216 229 229 243 259 267 244 226 228 221
68 68 56 87 110 128 144 152 154 150 144 142 142 143 144 140 135 129 124 123 121 118 117 113 107 102 86 73 91 158 151 132 105 74 58 60 64 32 358 250 234 220 186
63 68 73 79 82 93 129 138 139 136 135 135 137 137 139 137 133 127 124 121 120 115 106 96 90 86 74 59 60 53 141 127 118 105 89 67 52 44 28 328 323 234 270
66 69 72 73 73 82 112 121 122 123 127 128 123 123 126 125 123 121 119 117 114 107 99 93 85 76 64 66 59 43 90 119 117 108 90 68 65 60 46 24 28 342 299
69 75 77 71 67 77 103 105 103 105 112 114 112 110 112 116 114 113 110 112 114 112 106 98 86 76 67 58 62 58 51 41 84 78 76 74 73 72 59 53 32 338 294
70 79 84 81 73 71 84 89 87 100 106 105 102 98 92 89 96 105 110 109 109 109 107 104 94 80 74 72 70 68 64 59 73 77 82 86 91 99 84 71 23 349 12
72 76 83 82 76 72 77 85 94 98 101 99 96 94 89 84 75 71 71 77 82 94 96 93 90 84 69 55 58 75 83 92 91 91 108 121 104 90 77 71 43 37 35
72 75 78 82 80 77 77 81 92 100 100 98 96 94 90 87 79 69 54 58 50 51 75 81 81 79 73 44 34 49 61 63 71 82 84 68 63 56 51 48 42 28 22
82 81 81 81 80 79 77 77 84 95 101 101 100 98 98 96 97 94 79 58 61 58 57 57 70 76 74 73 65 61 57 46 15 40 70 60 48 43 37 29 24 23 17
Height
1499 1501 1504 1506 1508 1511 1513 1515 1518 1521 1524 1528 1531 1534 1537 1540 1543 1545 1548 1550 1553 1556 1559 1562 1563 1565 1567 1569 1571 1572 1574 1575 1576 1578 1578 1579 1579 1580 1580 1581 1582 1582 1583
1496 1498 1501 1503 1505 1507 1509 1511 1514 1517 1520 1523 1526 1530 1533 1537 1539 1542 1544 1547 1549 1552 1556 1558 1561 1563 1564 1566 1568 1570 1572 1573 1574 1576 1577 1577 1578 1577 1578 1579 1579 1580 1581
1493 1495 1497 1500 1502 1504 1506 1508 1511 1514 1517 1520 1523 1526 1530 1533 1536 1538 1541 1543 1546 1549 1552 1555 1558 1560 1562 1564 1565 1567 1569 1571 1572 1574 1575 1576 1575 1575 1576 1576 1577 1578 1578
1490 1492 1494 1497 1499 1501 1503 1505 1508 1510 1513 1516 1519 1521 1524 1527 1530 1533 1537 1540 1542 1546 1549 1552 1554 1556 1559 1561 1563 1565 1567 1568 1570 1571 1572 1574 1574 1574 1574 1575 1575 1575 1576
1487 1490 1492 1494 1496 1498 1500 1502 1504 1507 1509 1512 1514 1517 1520 1524 1527 1530 1533 1535 1538 1542 1545 1548 1550 1553 1555 1558 1560 1561 1563 1565 1567 1569 1570 1571 1572 1573 1573 1573 1574 1574 1574
1486 1488 1490 1492 1494 1496 1498 1499 1501 1503 1506 1508 1511 1513 1516 1519 1522 1525 1528 1531 1534 1538 1541 1544 1546 1549 1551 1553 1556 1558 1560 1562 1564 1566 1567 1569 1570 1571 1571 1571 1571 1572 1572
1484 1486 1489 1490 1492 1494 1495 1497 1499 1500 1503 1505 1507 1510 1512 1514 1517 1521 1523 1527 1530 1533 1536 1540 1542 1545 1547 1550 1552 1554 1556 1558 1560 1562 1564 1566 1567 1568 1569 1569 1569 1569 1569
1483 1485 1487 1489 1490 1492 1493 1495 1496 1498 1500 1502 1504 1506 1508 1511 1514 1517 1520 1523 1526 1529 1532 1535 1538 1541 1544 1546 1548 1550 1552 1554 1556 1558 1560 1562 1564 1565 1566 1567 1567 1567 1567
1482 1484 1486 1488 1489 1491 1492 1493 1495 1496 1498 1500 1501 1503 1505 1508 1510 1513 1516 1519 1522 1525 1528 1531 1534 1537 1540 1542 1545 1547 1549 1551 1553 1555 1556 1558 1560 1561 1562 1563 1564 1565 1564
1481 1483 1485 1487 1488 1490 1491 1492 1493 1495 1496 1498 1499 1501 1503 1505 1507 1510 1512 1515 1518 1521 1524 1527 1530 1533 1536 1538 1541 1543 1545 1547 1549 1551 1552 1554 1556 1558 1558 1559 1560 1561 1561
1480 1483 1485 1486 1488 1489 1491 1492 1493 1494 1495 1497 1498 1500 1501 1503 1505 1506 1509 1511 1513 1516 1519 1522 1526 1529 1532 1534 1537 1540 1542 1543 1545 1547 1549 1550 1552 1553 1555 1556 1556 1557 1558
1481 1483 1484 1486 1487 1489 1491 1492 1493 1494 1495 1496 1497 1498 1499 1501 1502 1504 1506 1508 1510 1512 1516 1519 1522 1525 1528 1531 1533 1536 1538 1540 1541 1543 1545 1547 1548 1549 1550 1551 1552 1553 1553
1481 1483 1484 1486 1487 1489 1490 1491 1492 1493 1494 1495 1496 1497 1498 1499 1500 1502 1503 1505 1508 1510 1513 1516 1519 1522 1525 1527 1530 1532 1535 1537 1538 1540 1541 1543 1544 1545 1546 1547 1548 1549 1549
1481 1482 1483 1485 1486 1488 1489 1490 1491 1493 1493 1494 1495 1496 1497 1498 1499 1500 1502 1503 1506 1508 1510 1513 1516 1519 1522 1524 1527 1529 1531 1533 1535 1536 1537 1538 1540 1541 1542 1543 1543 1544 1545
1480 1482 1483 1484 1485 1487 1488 1489 1490 1491 1492 1493 1494 1495 1496 1497 1498 1499 1500 1502 1504 1506 1508 1511 1514 1516 1519 1521 1524 1526 1528 1530 1531 1532 1533 1535 1536 1537 1538 1539 1540 1541 1541
1480 1481 1482 1483 1485 1486 1487 1488 1489 1490 1491 1492 1493 1494 1495 1496 1497 1498 1499 1500 1502 1504 1507 1509 1512 1514 1517 1519 1521 1523 1525 1527 1528 1529 1530 1531 1532 1533 1534 1535 1536 1537 1537
1480 1481 1482 1483 1484 1485 1486 1488 1489 1490 1490 1492 1493 1493 1494 1495 1496 1497 1498 1499 1501 1503 1505 1508 1510 1512 1515 1517 1519 1521 1523 1524 1525 1526 1527 1528 1529 1530 1530 1531 1532 1532 1533
1480 1481 1482 1482 1483 1485 1486 1487 1488 1489 1490 1491 1493 1494 1494 1495 1496 1497 1498 1499 1501 1503 1505 1507 1509 1511 1513 1515 1517 1519 1521 1522 1522 1523 1523 1525 1526 1527 1527 1528 1528 1528 1528
1480 1481 1482 1482 1483 1484 1485 1486 1487 1488 1490 1491 1492 1494 1495 1496 1497 1498 1499 1500 1502 1503 1505 1507 1509 1511 1513 1515 1516 1518 1519 1519 1520 1520 1521 1522 1523 1524 1524 1525 1525 1525 1525
1481 1481 1481 1482 1482 1483 1484 1485 1486 1488 1489 1491 1492 1493 1495 1496 1497 1498 1500 1501 1503 1504 1506 1508 1509 1511 1513 1515 1516 1517 1518 1518 1519 1519 1519 1520 1521 1521 1521 1522 1523 1523 1523
1481 1481 1481 1481 1482 1483 1483 1484 1486 1488 1489 1490 1492 1493 1494 1496 1498 1499 1501 1502 1504 1505 1507 1509 1510 1512 1513 1514 1515 1516 1516 1517 1518 1519 1519 1519 1519 1520 1520 1520 1520 1520 1521
1481 1481 1482 1482 1482 1483 1484 1484 1485 1487 1489 1490 1492 1493 1495 1497 1498 1500 1501 1503 1505 1506 1508 1510 1511 1512 1513 1514 1515 1515 1516 1516 1517 1518 1518 1518 1518 1518 1519 1519 1519 1519 1519
1482 1483 1483 1483 1483 1484 1484 1485 1486 1488 1489 1491 1492 1494 1495 1497 1499 1501 1503 1505 1506 1508 1510 1511 1512 1514 1514 1515 1515 1515 1516 1516 1517 1517 1517 1517 1517 1518 1518 1517 1517 1517 1518
1484 1484 1485 1484 1485 1485 1486 1486 1488 1489 1490 1492 1494 1495 1496 1498 1500 1502 1504 1506 1508 1509 1511 1512 1513 1514 1515 1516 1516 1517 1517 1517 1517 1517 1517 1517 1517 1517 1517 1517 1517 1517 1516
1485 1486 1486 1486 1487 1487 1487 1488 1489 1491 1492 1494 1495 1497 1499 1500 1501 1503 1505 1507 1508 1510 1512 1513 1514 1515 1516 1517 1517 1518 1518 1518 1518 1518 1519 1519 1519 1519 1519 1518 1518 1517 1516
1487 1488 1488 1488 1489 1490 1490 1491 1492 1493 1495 1496 1498 1499 1501 1503 1504 1505 1507 1510 1511 1513 1514 1515 1516 1516 1517 1518 1519 1519 1519 1519 1519 1520 1520 1520 1520 1520 1519 1519 1518 1517 1516